Time,TemperatureF,DewpointF,PressureIn,WindDirection,WindDirectionDegrees,WindSpeedMPH,WindSpeedGustMPH,Humidity,HourlyPrecipIn,Conditions,Clouds,dailyrainin,SoftwareType,DateUTC
2013-03-12 00:00:00,67.7,61.3,29.92,SE,138,0.0,1.0,80,0.00,,,0.00,Wunderground v.1.15,2013-03-12 04:00:00,
2013-03-12 00:05:00,67.6,61.2,29.92,ESE,116,0.0,1.0,80,0.00,,,0.00,Wunderground v.1.15,2013-03-12 04:05:00,
2013-03-12 00:15:00,67.6,61.6,29.92,SSE,165,0.0,0.0,81,0.00,,,0.00,Wunderground v.1.15,2013-03-12 04:15:00,
2013-03-12 00:25:00,67.6,61.6,29.93,South,169,0.0,0.0,81,0.00,,,0.00,Wunderground v.1.15,2013-03-12 04:25:00,
2013-03-12 00:30:00,67.6,61.6,29.92,SE,130,0.0,0.0,81,0.00,,,0.00,Wunderground v.1.15,2013-03-12 04:30:00,
2013-03-12 00:35:00,67.6,61.6,29.92,ESE,119,0.0,0.0,81,0.00,,,0.00,Wunderground v.1.15,2013-03-12 04:35:00,
2013-03-12 00:40:00,67.6,61.6,29.91,ESE,120,0.0,0.0,81,0.00,,,0.00,Wunderground v.1.15,2013-03-12 04:40:00,
2013-03-12 00:45:00,67.5,61.8,29.91,SSE,166,0.0,1.0,82,0.00,,,0.00,Wunderground v.1.15,2013-03-12 04:45:00,
2013-03-12 00:50:00,67.4,61.7,29.91,SSE,153,0.0,1.0,82,0.00,,,0.00,Wunderground v.1.15,2013-03-12 04:50:00,
2013-03-12 01:00:00,67.3,61.6,29.91,ESE,102,0.0,0.0,82,0.00,,,0.00,Wunderground v.1.15,2013-03-12 05:00:00,
2013-03-12 01:05:00,67.2,61.5,29.91,SSE,164,0.0,0.0,82,0.00,,,0.00,Wunderground v.1.15,2013-03-12 05:05:00,
2013-03-12 01:15:00,67.1,61.4,29.91,SE,131,0.0,0.0,82,0.00,,,0.00,Wunderground v.1.15,2013-03-12 05:15:00,
2013-03-12 01:25:00,67.0,61.3,29.91,South,182,0.0,0.0,82,0.00,,,0.00,Wunderground v.1.15,2013-03-12 05:25:00,
2013-03-12 01:30:00,67.0,61.0,29.91,SSE,156,0.0,0.0,81,0.00,,,0.00,Wunderground v.1.15,2013-03-12 05:30:00,
2013-03-12 01:35:00,67.0,61.0,29.90,SSE,168,0.0,0.0,81,0.00,,,0.00,Wunderground v.1.15,2013-03-12 05:35:00,
2013-03-12 01:45:00,66.8,60.8,29.90,SSE,167,0.0,1.0,81,0.00,,,0.00,Wunderground v.1.15,2013-03-12 05:45:00,
2013-03-12 01:50:00,66.8,60.8,29.90,SSE,157,0.0,0.0,81,0.00,,,0.00,Wunderground v.1.15,2013-03-12 05:50:00,
2013-03-12 02:00:00,66.7,60.7,29.90,South,184,0.0,1.0,81,0.00,,,0.00,Wunderground v.1.15,2013-03-12 06:00:00,
2013-03-12 02:10:00,66.7,60.3,29.90,SSE,147,0.0,1.0,80,0.00,,,0.00,Wunderground v.1.15,2013-03-12 06:10:00,
2013-03-12 02:15:00,66.7,60.3,29.90,SSE,165,0.0,1.0,80,0.00,,,0.00,Wunderground v.1.15,2013-03-12 06:15:00,
2013-03-12 02:25:00,66.8,60.4,29.90,SSW,201,0.0,0.0,80,0.00,,,0.00,Wunderground v.1.15,2013-03-12 06:25:00,
2013-03-12 02:30:00,66.7,60.3,29.91,SW,215,0.0,2.0,80,0.00,,,0.00,Wunderground v.1.15,2013-03-12 06:30:00,
2013-03-12 02:40:00,66.6,60.2,29.90,SSE,149,1.0,1.0,80,0.00,,,0.00,Wunderground v.1.15,2013-03-12 06:40:00,
2013-03-12 02:45:00,66.5,60.1,29.90,South,169,0.0,1.0,80,0.00,,,0.00,Wunderground v.1.15,2013-03-12 06:45:00,
2013-03-12 02:50:00,66.5,60.1,29.90,South,173,0.0,0.0,80,0.00,,,0.00,Wunderground v.1.15,2013-03-12 06:50:00,
2013-03-12 03:00:00,66.4,60.0,29.89,SSE,148,1.0,1.0,80,0.00,,,0.00,Wunderground v.1.15,2013-03-12 07:00:00,
2013-03-12 03:10:00,66.4,60.0,29.89,SSW,209,0.0,0.0,80,0.00,,,0.00,Wunderground v.1.15,2013-03-12 07:10:00,
2013-03-12 03:15:00,66.4,59.7,29.89,SSE,155,0.0,0.0,79,0.00,,,0.00,Wunderground v.1.15,2013-03-12 07:15:00,
2013-03-12 03:20:00,66.4,59.7,29.89,SE,144,0.0,0.0,79,0.00,,,0.00,Wunderground v.1.15,2013-03-12 07:20:00,
2013-03-12 03:30:00,66.3,59.9,29.88,SE,143,0.0,0.0,80,0.00,,,0.00,Wunderground v.1.15,2013-03-12 07:30:00,
2013-03-12 03:35:00,66.3,59.9,29.87,South,171,1.0,1.0,80,0.00,,,0.00,Wunderground v.1.15,2013-03-12 07:35:00,
2013-03-12 03:45:00,66.3,59.9,29.88,SSE,163,1.0,1.0,80,0.00,,,0.00,Wunderground v.1.15,2013-03-12 07:45:00,
2013-03-12 03:50:00,66.2,59.8,29.88,SE,136,1.0,1.0,80,0.00,,,0.00,Wunderground v.1.15,2013-03-12 07:50:00,
2013-03-12 03:55:00,66.2,60.2,29.88,South,182,1.0,2.0,81,0.00,,,0.00,Wunderground v.1.15,2013-03-12 07:55:00,
2013-03-12 04:05:00,65.8,60.5,29.87,SSE,155,1.0,5.0,83,0.00,,,0.00,Wunderground v.1.15,2013-03-12 08:05:00,
2013-03-12 04:15:00,65.6,60.3,29.86,SW,217,2.0,2.0,83,0.00,,,0.00,Wunderground v.1.15,2013-03-12 08:15:00,
2013-03-12 04:20:00,65.7,60.7,29.85,SE,138,2.0,2.0,84,0.00,,,0.00,Wunderground v.1.15,2013-03-12 08:20:00,
2013-03-12 04:30:00,65.9,60.9,29.84,East,94,3.0,5.0,84,0.00,,,0.00,Wunderground v.1.15,2013-03-12 08:30:00,
2013-03-12 04:35:00,66.1,61.1,29.83,SSW,205,4.0,5.0,84,0.00,,,0.00,Wunderground v.1.15,2013-03-12 08:35:00,
2013-03-12 04:45:00,66.4,61.1,29.84,SSE,160,3.0,4.0,83,0.00,,,0.00,Wunderground v.1.15,2013-03-12 08:45:00,
2013-03-12 04:50:00,66.4,61.1,29.84,SW,231,3.0,5.0,83,0.00,,,0.00,Wunderground v.1.15,2013-03-12 08:50:00,
2013-03-12 05:00:00,66.6,61.6,29.84,South,178,4.0,4.0,84,0.00,,,0.00,Wunderground v.1.15,2013-03-12 09:00:00,
2013-03-12 05:05:00,66.8,61.5,29.85,SW,217,4.0,4.0,83,0.00,,,0.00,Wunderground v.1.15,2013-03-12 09:05:00,
2013-03-12 05:15:00,66.9,61.6,29.85,SSE,168,3.0,7.0,83,0.00,,,0.00,Wunderground v.1.15,2013-03-12 09:15:00,
2013-03-12 05:20:00,67.0,61.7,29.85,South,174,3.0,3.0,83,0.00,,,0.00,Wunderground v.1.15,2013-03-12 09:20:00,
2013-03-12 05:30:00,67.1,61.8,29.85,SSW,212,2.0,2.0,83,0.00,,,0.00,Wunderground v.1.15,2013-03-12 09:30:00,
2013-03-12 05:40:00,67.2,61.9,29.85,SSW,201,3.0,3.0,83,0.00,,,0.00,Wunderground v.1.15,2013-03-12 09:40:00,
2013-03-12 05:45:00,67.3,62.0,29.85,West,273,2.0,3.0,83,0.00,,,0.00,Wunderground v.1.15,2013-03-12 09:45:00,
2013-03-12 05:55:00,67.4,62.1,29.86,South,182,3.0,3.0,83,0.00,,,0.00,Wunderground v.1.15,2013-03-12 09:55:00,
2013-03-12 06:00:00,67.4,62.4,29.86,South,189,2.0,2.0,84,0.00,,,0.00,Wunderground v.1.15,2013-03-12 10:00:00,
2013-03-12 06:05:00,67.2,62.5,29.86,SE,137,2.0,2.0,85,0.00,,,0.00,Wunderground v.1.15,2013-03-12 10:05:00,
2013-03-12 06:15:00,66.6,62.3,29.86,SSW,207,3.0,3.0,86,0.00,,,0.00,Wunderground v.1.15,2013-03-12 10:15:00,
2013-03-12 06:20:00,66.5,62.5,29.87,South,189,3.0,3.0,87,0.00,,,0.00,Wunderground v.1.15,2013-03-12 10:20:00,
2013-03-12 06:30:00,66.4,62.4,29.86,ESE,123,3.0,4.0,87,0.00,,,0.00,Wunderground v.1.15,2013-03-12 10:30:00,
2013-03-12 06:40:00,66.3,62.6,29.87,South,173,2.0,2.0,88,0.00,,,0.01,Wunderground v.1.15,2013-03-12 10:40:00,
2013-03-12 06:45:00,66.1,62.4,29.87,SSW,201,2.0,4.0,88,0.00,,,0.01,Wunderground v.1.15,2013-03-12 10:45:00,
2013-03-12 06:50:00,65.8,62.5,29.87,SW,220,2.0,2.0,89,0.00,,,0.01,Wunderground v.1.15,2013-03-12 10:50:00,
2013-03-12 07:00:00,65.4,62.7,29.88,South,184,2.0,2.0,91,0.00,,,0.02,Wunderground v.1.15,2013-03-12 11:00:00,
2013-03-12 07:05:00,65.2,62.5,29.87,SSE,148,2.0,2.0,91,0.00,,,0.02,Wunderground v.1.15,2013-03-12 11:05:00,
2013-03-12 07:15:00,64.8,62.4,29.87,SW,222,3.0,6.0,92,0.04,,,0.03,Wunderground v.1.15,2013-03-12 11:15:00,
2013-03-12 07:20:00,64.7,62.6,29.87,South,174,1.0,1.0,93,0.04,,,0.03,Wunderground v.1.15,2013-03-12 11:20:00,
2013-03-12 07:30:00,64.5,62.4,29.87,SSE,152,2.0,3.0,93,0.00,,,0.03,Wunderground v.1.15,2013-03-12 11:30:00,
2013-03-12 07:35:00,64.5,62.4,29.88,South,173,2.0,3.0,93,0.00,,,0.03,Wunderground v.1.15,2013-03-12 11:35:00,
2013-03-12 07:45:00,64.4,62.6,29.88,SW,217,2.0,2.0,94,0.00,,,0.04,Wunderground v.1.15,2013-03-12 11:45:00,
2013-03-12 07:50:00,64.3,62.5,29.88,SSE,149,2.0,2.0,94,0.00,,,0.04,Wunderground v.1.15,2013-03-12 11:50:00,
2013-03-12 08:00:00,64.3,62.8,29.89,SSW,201,2.0,2.0,95,0.04,,,0.05,Wunderground v.1.15,2013-03-12 12:00:00,
2013-03-12 08:05:00,64.2,62.7,29.89,South,171,2.0,2.0,95,0.04,,,0.05,Wunderground v.1.15,2013-03-12 12:05:00,
2013-03-12 08:15:00,64.1,62.6,29.89,South,169,2.0,2.0,95,0.00,,,0.05,Wunderground v.1.15,2013-03-12 12:15:00,
2013-03-12 08:25:00,64.1,62.6,29.88,ESE,120,1.0,1.0,95,0.00,,,0.05,Wunderground v.1.15,2013-03-12 12:25:00,
2013-03-12 08:30:00,64.3,63.1,29.88,SSE,148,1.0,1.0,96,0.00,,,0.05,Wunderground v.1.15,2013-03-12 12:30:00,
2013-03-12 08:40:00,64.4,62.9,29.89,South,180,2.0,2.0,95,0.00,,,0.05,Wunderground v.1.15,2013-03-12 12:40:00,
2013-03-12 08:45:00,64.4,62.9,29.88,SW,227,2.0,2.0,95,0.00,,,0.05,Wunderground v.1.15,2013-03-12 12:45:00,
2013-03-12 08:55:00,64.5,63.0,29.89,SW,230,2.0,2.0,95,0.00,,,0.05,Wunderground v.1.15,2013-03-12 12:55:00,
2013-03-12 09:05:00,64.7,63.2,29.89,SE,138,2.0,5.0,95,0.00,,,0.05,Wunderground v.1.15,2013-03-12 13:05:00,
2013-03-12 09:10:00,64.7,63.2,29.89,SW,223,2.0,3.0,95,0.00,,,0.05,Wunderground v.1.15,2013-03-12 13:10:00,
2013-03-12 09:15:00,64.8,63.3,29.89,SW,223,2.0,3.0,95,0.00,,,0.05,Wunderground v.1.15,2013-03-12 13:15:00,
2013-03-12 09:25:00,65.0,63.5,29.89,SW,216,2.0,7.0,95,0.00,,,0.05,Wunderground v.1.15,2013-03-12 13:25:00,
2013-03-12 09:30:00,65.1,63.6,29.90,ESE,111,2.0,2.0,95,0.00,,,0.05,Wunderground v.1.15,2013-03-12 13:30:00,
2013-03-12 09:40:00,65.3,63.5,29.90,West,262,2.0,5.0,94,0.00,,,0.05,Wunderground v.1.15,2013-03-12 13:40:00,
2013-03-12 09:45:00,65.4,63.6,29.90,SW,229,3.0,5.0,94,0.00,,,0.05,Wunderground v.1.15,2013-03-12 13:45:00,
2013-03-12 09:55:00,65.6,63.8,29.90,South,180,2.0,3.0,94,0.00,,,0.05,Wunderground v.1.15,2013-03-12 13:55:00,
2013-03-12 10:05:00,65.8,64.0,29.90,WNW,284,2.0,3.0,94,0.00,,,0.05,Wunderground v.1.15,2013-03-12 14:05:00,
2013-03-12 10:10:00,65.9,64.1,29.90,South,177,2.0,9.0,94,0.00,,,0.05,Wunderground v.1.15,2013-03-12 14:10:00,
2013-03-12 10:20:00,66.1,64.3,29.91,SSW,206,3.0,3.0,94,0.00,,,0.05,Wunderground v.1.15,2013-03-12 14:20:00,
2013-03-12 10:25:00,66.1,64.3,29.90,SW,221,3.0,3.0,94,0.00,,,0.05,Wunderground v.1.15,2013-03-12 14:25:00,
2013-03-12 10:30:00,66.1,64.3,29.90,WSW,242,2.0,3.0,94,0.00,,,0.05,Wunderground v.1.15,2013-03-12 14:30:00,
2013-03-12 10:40:00,66.2,64.4,29.91,SSW,206,3.0,3.0,94,0.00,,,0.05,Wunderground v.1.15,2013-03-12 14:40:00,
2013-03-12 10:45:00,66.2,64.4,29.91,WNW,291,2.0,3.0,94,0.00,,,0.05,Wunderground v.1.15,2013-03-12 14:45:00,
2013-03-12 10:55:00,66.3,64.5,29.91,SSE,157,2.0,2.0,94,0.00,,,0.05,Wunderground v.1.15,2013-03-12 14:55:00,
2013-03-12 11:05:00,66.5,64.7,29.91,WSW,248,2.0,2.0,94,0.00,,,0.05,Wunderground v.1.15,2013-03-12 15:05:00,
2013-03-12 11:10:00,66.6,64.8,29.92,SSW,202,2.0,5.0,94,0.00,,,0.05,Wunderground v.1.15,2013-03-12 15:10:00,
2013-03-12 11:20:00,66.7,64.9,29.92,WSW,237,2.0,2.0,94,0.00,,,0.05,Wunderground v.1.15,2013-03-12 15:20:00,
2013-03-12 11:30:00,66.7,65.2,29.93,South,190,1.0,1.0,95,0.14,,,0.08,Wunderground v.1.15,2013-03-12 15:30:00,
2013-03-12 11:35:00,66.6,65.1,29.93,West,267,1.0,1.0,95,0.07,,,0.08,Wunderground v.1.15,2013-03-12 15:35:00,
2013-03-12 11:45:00,66.6,65.4,29.93,WSW,246,2.0,4.0,96,0.06,,,0.09,Wunderground v.1.15,2013-03-12 15:45:00,
2013-03-12 11:50:00,66.5,65.3,29.93,WSW,244,2.0,2.0,96,0.04,,,0.09,Wunderground v.1.15,2013-03-12 15:50:00,
2013-03-12 12:00:00,66.2,65.0,29.93,WNW,282,2.0,2.0,96,0.00,,,0.09,Wunderground v.1.15,2013-03-12 16:00:00,
2013-03-12 12:10:00,64.9,63.1,29.94,West,276,3.0,3.0,94,0.00,,,0.09,Wunderground v.1.15,2013-03-12 16:10:00,
2013-03-12 12:20:00,64.1,62.6,29.94,West,277,3.0,3.0,95,0.00,,,0.09,Wunderground v.1.15,2013-03-12 16:20:00,
2013-03-12 12:25:00,64.0,62.5,29.94,West,275,2.0,5.0,95,0.00,,,0.09,Wunderground v.1.15,2013-03-12 16:25:00,
2013-03-12 12:35:00,63.9,62.4,29.94,West,279,1.0,1.0,95,0.00,,,0.09,Wunderground v.1.15,2013-03-12 16:35:00,
2013-03-12 12:40:00,63.9,62.4,29.94,WSW,243,1.0,1.0,95,0.00,,,0.09,Wunderground v.1.15,2013-03-12 16:40:00,
2013-03-12 12:45:00,64.0,62.5,29.94,WSW,243,1.0,1.0,95,0.00,,,0.09,Wunderground v.1.15,2013-03-12 16:45:00,
2013-03-12 12:55:00,64.0,62.5,29.94,West,281,1.0,2.0,95,0.00,,,0.09,Wunderground v.1.15,2013-03-12 16:55:00,
2013-03-12 13:00:00,64.0,62.5,29.94,West,268,2.0,2.0,95,0.00,,,0.09,Wunderground v.1.15,2013-03-12 17:00:00,
2013-03-12 13:05:00,64.1,62.6,29.93,SW,235,1.0,2.0,95,0.00,,,0.09,Wunderground v.1.15,2013-03-12 17:05:00,
2013-03-12 13:15:00,64.4,62.9,29.93,WNW,285,1.0,3.0,95,0.00,,,0.09,Wunderground v.1.15,2013-03-12 17:15:00,
2013-03-12 13:20:00,64.4,62.9,29.94,SW,225,1.0,2.0,95,0.00,,,0.09,Wunderground v.1.15,2013-03-12 17:20:00,
2013-03-12 13:25:00,64.5,62.7,29.93,West,261,2.0,2.0,94,0.00,,,0.09,Wunderground v.1.15,2013-03-12 17:25:00,
2013-03-12 13:35:00,64.7,62.9,29.93,West,277,1.0,2.0,94,0.00,,,0.09,Wunderground v.1.15,2013-03-12 17:35:00,
2013-03-12 13:45:00,65.2,63.4,29.93,WSW,252,1.0,3.0,94,0.00,,,0.09,Wunderground v.1.15,2013-03-12 17:45:00,
2013-03-12 13:55:00,66.2,63.8,29.92,SW,236,3.0,4.0,92,0.00,,,0.09,Wunderground v.1.15,2013-03-12 17:55:00,
2013-03-12 14:00:00,66.9,64.5,29.91,West,272,2.0,2.0,92,0.00,,,0.09,Wunderground v.1.15,2013-03-12 18:00:00,
2013-03-12 14:10:00,67.8,64.1,29.91,SW,236,3.0,3.0,88,0.00,,,0.09,Wunderground v.1.15,2013-03-12 18:10:00,
2013-03-12 14:15:00,68.4,64.7,29.91,WSW,246,3.0,3.0,88,0.00,,,0.09,Wunderground v.1.15,2013-03-12 18:15:00,
2013-03-12 14:25:00,69.1,64.4,29.91,WSW,255,3.0,3.0,85,0.00,,,0.09,Wunderground v.1.15,2013-03-12 18:25:00,
2013-03-12 14:30:00,69.6,64.5,29.91,West,277,4.0,4.0,84,0.00,,,0.09,Wunderground v.1.15,2013-03-12 18:30:00,
2013-03-12 14:40:00,70.0,64.6,29.91,West,277,4.0,4.0,83,0.00,,,0.09,Wunderground v.1.15,2013-03-12 18:40:00,
2013-03-12 14:45:00,70.3,64.9,29.90,SSW,213,3.0,4.0,83,0.00,,,0.09,Wunderground v.1.15,2013-03-12 18:45:00,
2013-03-12 14:55:00,71.0,64.5,29.89,SW,223,3.0,3.0,80,0.00,,,0.09,Wunderground v.1.15,2013-03-12 18:55:00,
2013-03-12 15:00:00,71.3,64.4,29.89,SW,232,4.0,4.0,79,0.00,,,0.09,Wunderground v.1.15,2013-03-12 19:00:00,
2013-03-12 15:10:00,71.4,64.5,29.89,WNW,303,3.0,3.0,79,0.00,,,0.09,Wunderground v.1.15,2013-03-12 19:10:00,
2013-03-12 15:15:00,71.4,64.2,29.89,SW,236,3.0,4.0,78,0.00,,,0.09,Wunderground v.1.15,2013-03-12 19:15:00,
2013-03-12 15:25:00,70.6,63.4,29.90,West,271,5.0,5.0,78,0.00,,,0.09,Wunderground v.1.15,2013-03-12 19:25:00,
2013-03-12 15:35:00,69.3,62.5,29.90,West,273,4.0,4.0,79,0.00,,,0.09,Wunderground v.1.15,2013-03-12 19:35:00,
2013-03-12 15:45:00,69.0,62.2,29.90,SW,234,3.0,4.0,79,0.00,,,0.09,Wunderground v.1.15,2013-03-12 19:45:00,
2013-03-12 15:55:00,69.0,62.6,29.90,WSW,246,3.0,4.0,80,0.00,,,0.09,Wunderground v.1.15,2013-03-12 19:55:00,
2013-03-12 16:00:00,69.2,61.7,29.90,WNW,296,4.0,4.0,77,0.00,,,0.09,Wunderground v.1.15,2013-03-12 20:00:00,
2013-03-12 16:10:00,69.4,61.5,29.90,WSW,238,4.0,4.0,76,0.00,,,0.09,Wunderground v.1.15,2013-03-12 20:10:00,
2013-03-12 16:15:00,69.5,61.6,29.90,WSW,249,4.0,4.0,76,0.00,,,0.09,Wunderground v.1.15,2013-03-12 20:15:00,
2013-03-12 16:20:00,69.3,61.4,29.90,SW,230,3.0,3.0,76,0.00,,,0.09,Wunderground v.1.15,2013-03-12 20:20:00,
2013-03-12 16:30:00,69.5,61.2,29.90,West,279,3.0,4.0,75,0.00,,,0.09,Wunderground v.1.15,2013-03-12 20:30:00,
2013-03-12 16:40:00,69.4,61.5,29.90,West,267,3.0,3.0,76,0.00,,,0.09,Wunderground v.1.15,2013-03-12 20:40:00,
2013-03-12 16:45:00,69.5,61.6,29.90,West,271,3.0,3.0,76,0.00,,,0.09,Wunderground v.1.15,2013-03-12 20:45:00,
2013-03-12 16:55:00,69.1,60.8,29.90,West,262,3.0,6.0,75,0.00,,,0.09,Wunderground v.1.15,2013-03-12 20:55:00,
2013-03-12 17:05:00,69.3,61.0,29.90,WSW,244,2.0,3.0,75,0.00,,,0.09,Wunderground v.1.15,2013-03-12 21:05:00,
2013-03-12 17:10:00,69.2,60.9,29.91,West,273,2.0,2.0,75,0.00,,,0.09,Wunderground v.1.15,2013-03-12 21:10:00,
2013-03-12 17:15:00,69.2,60.9,29.90,West,275,2.0,2.0,75,0.00,,,0.09,Wunderground v.1.15,2013-03-12 21:15:00,
2013-03-12 17:25:00,68.8,60.6,29.90,WSW,257,2.0,3.0,75,0.00,,,0.09,Wunderground v.1.15,2013-03-12 21:25:00,
2013-03-12 17:30:00,68.8,60.6,29.91,West,273,2.0,2.0,75,0.00,,,0.09,Wunderground v.1.15,2013-03-12 21:30:00,
2013-03-12 17:35:00,68.8,60.6,29.91,West,267,2.0,3.0,75,0.00,,,0.09,Wunderground v.1.15,2013-03-12 21:35:00,
2013-03-12 17:45:00,68.4,60.2,29.91,West,266,3.0,3.0,75,0.00,,,0.09,Wunderground v.1.15,2013-03-12 21:45:00,
2013-03-12 17:55:00,68.0,59.8,29.91,WSW,257,3.0,5.0,75,0.00,,,0.09,Wunderground v.1.15,2013-03-12 21:55:00,
2013-03-12 18:00:00,67.9,59.7,29.91,WNW,284,3.0,3.0,75,0.00,,,0.09,Wunderground v.1.15,2013-03-12 22:00:00,
2013-03-12 18:10:00,67.7,59.9,29.92,West,271,3.0,3.0,76,0.00,,,0.09,Wunderground v.1.15,2013-03-12 22:10:00,
2013-03-12 18:15:00,67.4,60.3,29.92,WNW,298,3.0,4.0,78,0.00,,,0.09,Wunderground v.1.15,2013-03-12 22:15:00,
2013-03-12 18:25:00,66.0,60.0,29.92,West,267,3.0,3.0,81,0.00,,,0.09,Wunderground v.1.15,2013-03-12 22:25:00,
2013-03-12 18:30:00,65.4,59.4,29.92,WNW,288,3.0,3.0,81,0.00,,,0.09,Wunderground v.1.15,2013-03-12 22:30:00,
2013-03-12 18:40:00,64.5,59.2,29.92,WSW,248,3.0,3.0,83,0.00,,,0.09,Wunderground v.1.15,2013-03-12 22:40:00,
2013-03-12 18:45:00,64.4,59.1,29.93,WSW,241,3.0,4.0,83,0.00,,,0.09,Wunderground v.1.15,2013-03-12 22:45:00,
2013-03-12 18:55:00,63.9,59.0,29.93,West,266,2.0,2.0,84,0.00,,,0.09,Wunderground v.1.15,2013-03-12 22:55:00,
2013-03-12 19:00:00,63.6,58.7,29.94,West,272,2.0,3.0,84,0.00,,,0.09,Wunderground v.1.15,2013-03-12 23:00:00,
2013-03-12 19:10:00,62.8,58.5,29.94,West,264,3.0,3.0,86,0.00,,,0.09,Wunderground v.1.15,2013-03-12 23:10:00,
2013-03-12 19:20:00,62.3,58.4,29.95,West,274,2.0,2.0,87,0.00,,,0.09,Wunderground v.1.15,2013-03-12 23:20:00,
2013-03-12 19:25:00,62.1,58.2,29.94,West,265,2.0,3.0,87,0.00,,,0.09,Wunderground v.1.15,2013-03-12 23:25:00,
2013-03-12 19:30:00,61.8,57.9,29.94,West,264,2.0,3.0,87,0.00,,,0.09,Wunderground v.1.15,2013-03-12 23:30:00,
2013-03-12 19:40:00,61.3,57.7,29.94,WNW,290,2.0,2.0,88,0.00,,,0.09,Wunderground v.1.15,2013-03-12 23:40:00,
2013-03-12 19:45:00,61.1,57.8,29.95,WSW,238,1.0,2.0,89,0.00,,,0.09,Wunderground v.1.15,2013-03-12 23:45:00,
2013-03-12 19:55:00,60.5,57.2,29.96,West,277,2.0,2.0,89,0.00,,,0.09,Wunderground v.1.15,2013-03-12 23:55:00,
2013-03-12 20:00:00,60.2,57.3,29.96,West,267,2.0,2.0,90,0.00,,,0.09,Wunderground v.1.15,2013-03-13 00:00:00,
2013-03-12 20:10:00,59.8,56.9,29.96,West,269,2.0,2.0,90,0.00,,,0.09,Wunderground v.1.15,2013-03-13 00:10:00,
2013-03-12 20:15:00,59.5,56.6,29.96,WSW,255,2.0,3.0,90,0.00,,,0.09,Wunderground v.1.15,2013-03-13 00:15:00,
2013-03-12 20:25:00,59.1,56.5,29.97,WSW,249,2.0,3.0,91,0.00,,,0.09,Wunderground v.1.15,2013-03-13 00:25:00,
2013-03-12 20:30:00,58.9,56.3,29.97,WSW,237,1.0,2.0,91,0.00,,,0.09,Wunderground v.1.15,2013-03-13 00:30:00,
2013-03-12 20:40:00,58.6,56.3,29.97,WSW,253,1.0,2.0,92,0.00,,,0.09,Wunderground v.1.15,2013-03-13 00:40:00,
2013-03-12 20:45:00,58.4,56.1,29.98,WSW,240,1.0,2.0,92,0.00,,,0.09,Wunderground v.1.15,2013-03-13 00:45:00,
2013-03-12 20:55:00,58.1,55.8,29.98,WSW,241,1.0,3.0,92,0.00,,,0.09,Wunderground v.1.15,2013-03-13 00:55:00,
2013-03-12 21:05:00,57.8,55.5,29.99,West,277,1.0,3.0,92,0.00,,,0.09,Wunderground v.1.15,2013-03-13 01:05:00,
2013-03-12 21:10:00,57.7,55.4,29.99,West,269,1.0,1.0,92,0.00,,,0.09,Wunderground v.1.15,2013-03-13 01:10:00,
2013-03-12 21:20:00,57.5,55.2,30.00,West,269,1.0,1.0,92,0.00,,,0.09,Wunderground v.1.15,2013-03-13 01:20:00,
2013-03-12 21:25:00,57.3,55.0,30.00,West,269,1.0,3.0,92,0.00,,,0.09,Wunderground v.1.15,2013-03-13 01:25:00,
2013-03-12 21:30:00,57.3,55.0,30.00,West,263,1.0,1.0,92,0.00,,,0.09,Wunderground v.1.15,2013-03-13 01:30:00,
2013-03-12 21:40:00,57.1,54.8,30.00,SW,235,0.0,0.0,92,0.00,,,0.09,Wunderground v.1.15,2013-03-13 01:40:00,
2013-03-12 21:50:00,57.0,54.7,30.01,West,261,0.0,0.0,92,0.00,,,0.09,Wunderground v.1.15,2013-03-13 01:50:00,
2013-03-12 21:55:00,56.9,54.6,30.01,West,263,0.0,1.0,92,0.00,,,0.09,Wunderground v.1.15,2013-03-13 01:55:00,
2013-03-12 22:00:00,56.9,54.6,30.01,WSW,258,1.0,1.0,92,0.00,,,0.09,Wunderground v.1.15,2013-03-13 02:00:00,
2013-03-12 22:10:00,56.7,54.4,30.01,WSW,245,0.0,1.0,92,0.00,,,0.09,Wunderground v.1.15,2013-03-13 02:10:00,
2013-03-12 22:15:00,56.6,54.3,30.01,WSW,248,0.0,1.0,92,0.00,,,0.09,Wunderground v.1.15,2013-03-13 02:15:00,
2013-03-12 22:20:00,56.5,54.2,30.01,WSW,257,0.0,0.0,92,0.00,,,0.09,Wunderground v.1.15,2013-03-13 02:20:00,
2013-03-12 22:30:00,56.3,54.0,30.01,West,271,0.0,0.0,92,0.00,,,0.09,Wunderground v.1.15,2013-03-13 02:30:00,
2013-03-12 22:40:00,56.2,53.6,30.02,West,265,0.0,0.0,91,0.00,,,0.09,Wunderground v.1.15,2013-03-13 02:40:00,
2013-03-12 22:45:00,56.1,53.5,30.02,West,266,0.0,0.0,91,0.00,,,0.09,Wunderground v.1.15,2013-03-13 02:45:00,
2013-03-12 22:55:00,55.9,53.3,30.02,WSW,258,0.0,3.0,91,0.00,,,0.09,Wunderground v.1.15,2013-03-13 02:55:00,
2013-03-12 23:00:00,55.8,53.2,30.02,West,281,0.0,1.0,91,0.00,,,0.09,Wunderground v.1.15,2013-03-13 03:00:00,
2013-03-12 23:10:00,55.6,53.3,30.02,West,281,0.0,0.0,92,0.00,,,0.09,Wunderground v.1.15,2013-03-13 03:10:00,
2013-03-12 23:15:00,55.5,53.2,30.03,West,281,0.0,0.0,92,0.00,,,0.09,Wunderground v.1.15,2013-03-13 03:15:00,
2013-03-12 23:25:00,55.3,52.7,30.03,West,281,0.0,0.0,91,0.00,,,0.09,Wunderground v.1.15,2013-03-13 03:25:00,
2013-03-12 23:30:00,55.2,52.6,30.03,West,281,0.0,0.0,91,0.00,,,0.09,Wunderground v.1.15,2013-03-13 03:30:00,
2013-03-12 23:40:00,54.9,52.3,30.03,West,281,0.0,0.0,91,0.00,,,0.09,Wunderground v.1.15,2013-03-13 03:40:00,
2013-03-12 23:50:00,54.8,52.2,30.03,West,281,0.0,0.0,91,0.00,,,0.09,Wunderground v.1.15,2013-03-13 03:50:00,
2013-03-12 23:55:00,54.7,52.1,30.03,West,281,0.0,0.0,91,0.00,,,0.09,Wunderground v.1.15,2013-03-13 03:55:00,